Location: Beuvrequen
(50.8014°N, 1.6652°E)
Time: 03:50:04
(UTC+00:00)

Cosmos 1174 - Pass Details

Date: 16 October 2021
Orbit: 373 x 1139 km, 66.1° (Epoch: 28 November)

Event Time Altitude Azimuth Distance (km) Brightness Sun altitude
Rises 18:58:42 0° 224° (SW) 2,403 7.6 -19.7°
Reaches altitude 10° 19:00:52 10° 227° (SW) 1,471 6.5 -20.0°
Maximum altitude 19:04:00 65° 310° (NW) 427 3.4 -20.5°
Enters shadow 19:04:01 65° 312° (NW) 427 3.4 -20.5°
